Location: Unspecified
(43.4354°N, 0.0000°E)
Time: 08:28:32
(UTC+00:00)

Tiros 1 despin weight - Pass Details

Date: 30 June 2019
Orbit: 594 x 642 km, 48.2° (Epoch: 21 July)

Event Time Altitude Azimuth Distance (km) Brightness Sun altitude
Rises 22:49:41 0° 282° (WNW) 2,866 ? -21.3°
Reaches altitude 10° 22:52:05 10° 289° (WNW) 1,954 ? -21.4°
Maximum altitude 22:56:24 45° 3° (N) 825 ? -21.6°
Drops below altitude 10° 23:00:39 10° 76° (ENE) 1,932 ? -21.9°
Sets 23:03:01 0° 83° (E) 2,830 ? -22.0°
